Date String (YYYY-MM-DD hh:mm:ss) UTC,Instrument flags,Ambient pressure (hPa),Sample flow (lpm),Bypass flow (lpm),Sample temperature (°C),Ambient temperature (°C),ASC tube jacket temperature (°C),LED temperature (°C),Box temperature (°C),Sample RH (%),Span deviation,Mass concentration (μg/m³),Mass concentration (μg/m³),Mass concentration (μg/m³)
DateTimeUTC,F1_M11,P_M11,Q1_M11,Q2_M11,T1_M11,T2_M11,T3_M11,T4_M11,T5_M11,U1_M11,ZSPAN_M11,X0_M11,X2_M11,X1_M11
2022-10-03 05:00:00,,0829.5,4.99,0.00,29.9,28.6,00.0,38.6,31.7,18.3,0000.0,0006.89,0002.49,0001.59
2022-10-03 05:01:00,,0829.5,5.01,0.00,29.9,28.6,00.0,38.6,31.7,18.7,0000.0,0007.26,0002.61,0001.65
2022-10-03 05:02:00,,0829.5,4.99,0.00,29.9,28.6,00.0,38.6,31.8,18.7,0000.0,0007.43,0002.78,0001.73
2022-10-03 05:03:00,,0829.5,5.01,0.00,29.9,28.6,00.0,38.6,31.8,18.7,0000.0,0007.49,0002.90,0001.81
2022-10-03 05:04:00,,0829.5,4.99,0.00,29.9,28.7,00.0,38.6,31.7,18.9,0000.0,0007.51,0002.95,0001.88
2022-10-03 05:05:00,,0829.5,5.01,0.00,29.9,28.6,00.0,38.6,31.8,18.9,0000.0,0008.27,0003.07,0001.93
2022-10-03 05:06:00,,0829.5,5.00,0.00,29.9,28.7,00.0,38.6,31.8,19.0,0000.0,0008.86,0003.12,0001.97
2022-10-03 05:07:00,,0829.5,4.99,0.00,30.0,28.7,00.0,38.6,31.8,19.1,0000.0,0008.93,0003.17,0002.00
2022-10-03 05:08:00,,0829.4,5.01,0.00,30.0,28.7,00.0,38.7,31.8,19.3,0000.0,0008.88,0003.20,0002.05
2022-10-03 05:09:00,,0829.5,4.99,0.00,30.0,28.7,00.0,38.7,31.9,19.6,0000.0,0008.76,0003.19,0002.10
2022-10-03 05:10:00,,0829.5,5.01,0.00,30.0,28.7,00.0,38.7,31.9,19.8,0000.0,0008.26,0003.21,0002.14
2022-10-03 05:11:00,,0829.5,4.99,0.00,30.0,28.8,00.0,38.7,31.9,19.5,0000.0,0008.82,0003.19,0002.17
2022-10-03 05:12:00,,0829.5,5.01,0.00,30.0,28.8,00.0,38.7,31.9,19.5,0000.0,0008.68,0003.17,0002.17
2022-10-03 05:13:00,,0829.5,4.99,0.00,30.0,28.8,00.0,38.7,31.9,19.6,0000.0,0008.48,0003.12,0002.16
2022-10-03 05:14:00,,0829.5,5.02,0.00,30.0,28.8,00.0,38.7,31.9,19.7,0000.0,0009.02,0003.06,0002.14
2022-10-03 05:15:00,,0829.5,5.00,0.00,30.0,28.8,00.0,38.7,31.9,19.8,0000.0,0009.06,0003.04,0002.16
2022-10-03 05:16:00,,0829.5,4.99,0.00,30.1,28.8,00.0,38.8,31.9,19.8,0000.0,0008.88,0003.00,0002.18
2022-10-03 05:17:00,,0829.4,5.01,0.00,30.1,28.8,00.0,38.8,31.9,19.8,0000.0,0008.50,0003.01,0002.22
2022-10-03 05:18:00,,0829.3,4.99,0.00,30.1,28.8,00.0,38.8,32.0,19.7,0000.0,0008.53,0003.06,0002.27
2022-10-03 05:19:00,,0829.3,5.01,0.00,30.1,28.8,00.0,38.8,32.0,19.7,0000.0,0008.57,0003.09,0002.29
2022-10-03 05:20:00,,0829.3,4.99,0.00,30.1,28.9,00.0,38.8,32.0,19.8,0000.0,0008.64,0003.13,0002.31
2022-10-03 05:21:00,,0829.2,5.01,0.00,30.1,28.9,00.0,38.8,32.0,19.9,0000.0,0008.56,0003.13,0002.31
2022-10-03 05:22:00,,0829.2,4.99,0.00,30.1,28.9,00.0,38.8,32.0,20.0,0000.0,0007.75,0003.13,0002.30
2022-10-03 05:23:00,,0829.2,5.02,0.00,30.1,28.9,00.0,38.8,32.0,20.0,0000.0,0007.75,0003.13,0002.33
2022-10-03 05:24:00,,0829.2,4.99,0.00,30.1,28.9,00.0,38.8,32.0,20.0,0000.0,0007.82,0003.13,0002.34
2022-10-03 05:25:00,,0829.2,5.01,0.00,30.2,28.9,00.0,38.8,32.0,19.9,0000.0,0008.08,0003.14,0002.35
2022-10-03 05:26:00,,0829.2,5.00,0.00,30.2,29.0,00.0,38.9,32.0,19.9,0000.0,0007.94,0003.17,0002.35
2022-10-03 05:27:00,,0829.2,4.99,0.00,30.2,28.9,00.0,38.9,32.0,20.0,0000.0,0007.68,0003.20,0002.36
2022-10-03 05:28:00,,0829.2,5.01,0.00,30.2,29.0,00.0,38.9,32.0,20.0,0000.0,0007.68,0003.21,0002.37
2022-10-03 05:29:00,,0829.2,4.99,0.00,30.2,29.0,00.0,38.9,32.0,20.0,0000.0,0007.54,0003.18,0002.37
2022-10-03 05:30:00,,0829.2,5.01,0.00,30.2,29.0,00.0,38.9,32.1,20.0,0000.0,0007.90,0003.15,0002.37
2022-10-03 05:31:00,,0829.2,5.00,0.00,30.2,29.0,00.0,38.9,32.1,19.9,0000.0,0007.98,0003.13,0002.38
2022-10-03 05:32:00,,0829.2,5.01,0.00,30.2,29.0,00.0,38.9,32.1,19.9,0000.0,0007.82,0003.11,0002.41
2022-10-03 05:33:00,,0829.2,5.00,0.00,30.2,29.0,00.0,38.9,32.1,19.9,0000.0,0007.83,0003.13,0002.43
2022-10-03 05:34:00,,0829.2,5.00,0.00,30.2,29.0,00.0,38.9,32.1,19.8,0000.0,0007.82,0003.14,0002.45
2022-10-03 05:35:00,,0829.2,5.00,0.00,30.3,29.0,00.0,38.9,32.1,19.7,0000.0,0007.74,0003.16,0002.47
2022-10-03 05:36:00,,0829.2,5.00,0.00,30.3,29.0,00.0,38.9,32.1,19.5,0000.0,0006.80,0003.15,0002.48
2022-10-03 05:37:00,,0829.2,5.01,0.00,30.3,29.0,00.0,39.0,32.1,19.4,0000.0,0007.87,0003.13,0002.48
2022-10-03 05:38:00,,0829.2,4.99,0.00,30.3,29.0,00.0,39.0,32.1,19.1,0000.0,0007.98,0003.05,0002.46
2022-10-03 05:39:00,,0829.2,5.01,0.00,30.3,29.0,00.0,39.0,32.1,19.1,0000.0,0007.63,0003.00,0002.43
2022-10-03 05:40:00,,0829.2,5.00,0.00,30.3,29.0,00.0,39.0,32.1,19.1,0000.0,0008.08,0002.98,0002.41
2022-10-03 05:41:00,,0829.2,5.00,0.00,30.3,29.0,00.0,39.0,32.2,19.0,0000.0,0007.68,0003.01,0002.40
2022-10-03 05:42:00,,0829.3,5.01,0.00,30.3,29.0,00.0,39.0,32.2,18.9,0000.0,0007.55,0003.00,0002.38
2022-10-03 05:43:00,,0829.2,4.99,0.00,30.3,29.0,00.0,39.0,32.1,18.9,0000.0,0007.57,0003.00,0002.35
2022-10-03 05:44:00,,0829.2,5.00,0.00,30.3,29.1,00.0,39.0,32.1,18.8,0000.0,0007.53,0002.94,0002.32
2022-10-03 05:45:00,,0829.3,5.00,0.00,30.3,29.1,00.0,39.0,32.2,18.7,0000.0,0007.68,0002.92,0002.28
2022-10-03 05:46:00,,0829.3,5.00,0.00,30.4,29.1,00.0,39.1,32.2,18.7,0000.0,0008.02,0002.90,0002.24
2022-10-03 05:47:00,,0829.3,5.01,0.00,30.4,29.1,00.0,39.1,32.2,18.6,0000.0,0007.93,0002.86,0002.21
2022-10-03 05:48:00,,0829.3,4.99,0.00,30.4,29.1,00.0,39.1,32.2,18.5,0000.0,0006.74,0002.79,0002.18
2022-10-03 05:49:00,,0829.2,5.00,0.00,30.4,29.1,00.0,39.1,32.2,18.4,0000.0,0006.02,0002.75,0002.16
2022-10-03 05:50:00,,0829.3,5.00,0.00,30.4,29.1,00.0,39.1,32.2,18.5,0000.0,0005.92,0002.71,0002.14
2022-10-03 05:51:00,,0829.3,4.99,0.00,30.4,27.8,00.0,39.1,32.1,18.5,0000.0,0005.58,0002.70,0002.12
2022-10-03 05:52:00,,0829.3,4.99,0.00,30.3,26.8,00.0,39.0,32.0,18.5,0000.0,0005.53,0002.61,0002.09
2022-10-03 05:53:00,,0829.3,5.00,0.00,30.2,26.7,00.0,39.0,31.9,18.5,0000.0,0005.67,0002.61,0002.06
2022-10-03 05:54:00,,0829.3,5.00,0.00,30.1,26.9,00.0,38.9,31.7,18.6,0000.0,0005.57,0002.55,0002.04
2022-10-03 05:55:00,,0829.3,5.00,0.00,30.0,27.2,00.0,38.9,31.7,18.6,0000.0,0005.48,0002.50,0002.01
2022-10-03 05:56:00,,0829.3,5.00,0.00,30.0,27.5,00.0,38.8,31.6,18.8,0000.0,0005.47,0002.49,0001.99
2022-10-03 05:57:00,,0829.3,4.99,0.00,30.0,27.7,00.0,38.8,31.6,19.2,0000.0,0004.61,0002.47,0001.98
2022-10-03 05:58:00,,0829.2,5.00,0.00,29.9,27.9,00.0,38.8,31.6,19.8,0000.0,0004.67,0002.51,0001.98
2022-10-03 05:59:00,,0829.2,5.01,0.00,29.9,28.1,00.0,38.8,31.7,19.8,0000.0,0004.95,0002.58,0001.99
